Location: Aldenham
(51.6667°N, 0.3500°W)
Time: 06:29:22
(UTC+00:00)

Cosmos 1140 Rocket - Pass Details

Date: 18 November 2025
Orbit: 740 x 761 km, 74.1° (Epoch: 16 December)

Event Time Altitude Azimuth Distance (km) Brightness Sun altitude
Rises 16:52:25 0° 193° (SSW) 3,196 7.3 -7.1°
Reaches altitude 10° 16:54:48 10° 191° (S) 2,273 6.4 -7.4°
Maximum altitude 16:59:54 65° 110° (ESE) 824 3.5 -8.2°
Drops below altitude 10° 17:04:59 10° 30° (NNE) 2,275 5.5 -8.9°
Enters shadow 17:06:41 - 28° (NNE) 2,933 6.1 -9.1°
